JCSAT-17

Last updated on Mon Jan 19 2026 00:02:51 GMT+0000 (Coordinated Universal Time)

1 45245U 20013A 26018.39545831 -.00000294 00000+0 00000+0 0 9995 2 45245 5.3977 355.3843 0003714 321.1377 79.6432 1.00270932 21731
UTC large
Height (km)
Speed (km/s)
/
Latitude / Longitude
Inclination (degrees)
Orbital Period (minutes)
Azimuth
Elevation
Range (km)
Doppler Factor

Next 0 passes for location: London (51.5072 / 0.1276)

Sorry there are no passes over London.